Flag for Belarus Weather past 2 weeks in Gomel, Belarus

Now
52 °F

Sunny.


Feels Like: 47 °F
Forecast: 36 / 62 °F
Wind: 13 mph from East

Location: Gomel'


UV Index: 3 (Moderate)

Visibility: 10 mi


Pressure: 30.24 "Hg

Humidity: 67%

Dew point: 41 °F

Location of GomelLocation

Historic Weather in Gomel

°F

Gomel temperature yesterday

Maximum temperature yesterday: 72 °F (at 3:00 PM)
Minimum temperature yesterday: 48 °F (at 7:00 AM)
Average temperature yesterday: 61 °F

Past Weeks' High & Low Weather Summary

 TemperatureHumidityPressure
High72 °F (Apr 20, 3:00 PM)100% (Apr 9, 11:00 AM)30.33 "Hg (Apr 9, 11:00 AM)
Low32 °F (Apr 11, 6:00 AM)25% (Apr 20, 3:00 PM)29.65 "Hg (Apr 15, 6:30 AM)
Average51 °F70%30.04 "Hg
* Reported Apr 9 8:00 AM — Apr 24 8:00 AM, Gomel, Weather by CustomWeather, © 2014

Note: Actual official high and low records may vary slightly from our data, if they occured in-between our weather recording intervals... More about our weather records

Advertising

Historic Weather Conditions — Data for Previous 24 hours

 ConditionsComfort  
Time TempWeatherWind HumidityBarometerVisibility
8:00 AM
Apr 24
52 °FSunny.13 mph67%30.24 "Hg10 mi
7:30 AM50 °FSunny.10 mph67%30.21 "Hg10 mi
7:00 AM50 °FSunny.10 mph67%30.21 "Hg10 mi
6:30 AM46 °FClear.13 mph76%30.18 "Hg10 mi
6:00 AM46 °FClear.10 mph76%30.18 "Hg10 mi
5:00 AM50 °FPassing clouds.13 mph82%30.15 "HgN/A
4:00 AM54 °FClear.10 mph77%30.12 "Hg10 mi
3:00 AM54 °FClear.10 mph77%30.12 "Hg10 mi
2:00 AM55 °FPassing clouds.10 mph72%30.09 "HgN/A
1:00 AM55 °FClear.10 mph77%30.09 "Hg10 mi
12:00 AM55 °FClear.10 mph77%30.09 "Hg10 mi
11:00 PM
Apr 23
57 °FClear.8 mph67%30.07 "Hg10 mi
10:00 PM59 °FClear.8 mph68%30.07 "Hg10 mi
9:00 PM63 °FSunny.8 mph64%30.04 "Hg10 mi
8:30 PM66 °FScattered clouds.8 mph52%30.01 "HgN/A
8:00 PM66 °FScattered clouds.6 mph52%30.01 "HgN/A
7:30 PM68 °FScattered clouds.6 mph49%30.01 "HgN/A
7:00 PM68 °FScattered clouds.6 mph49%30.01 "HgN/A
6:30 PM70 °FScattered clouds.3 mph46%30.01 "HgN/A
6:00 PM70 °FScattered clouds.6 mph46%30.01 "HgN/A
5:30 PM72 °FScattered clouds.10 mph44%30.01 "HgN/A
5:00 PM72 °FScattered clouds.10 mph44%30.01 "HgN/A
4:30 PM72 °FScattered clouds.3 mph44%30.01 "HgN/A
4:00 PM72 °FScattered clouds.10 mph44%30.01 "HgN/A
3:30 PM72 °FScattered clouds.10 mph47%30.01 "HgN/A
3:00 PM72 °FScattered clouds.6 mph47%30.04 "HgN/A
2:30 PM70 °FScattered clouds.3 mph53%30.04 "HgN/A
12:30 PM68 °FPassing clouds.3 mph60%30.04 "HgN/A
12:00 PM68 °FPassing clouds.1 mph60%30.04 "HgN/A
11:30 AM66 °FScattered clouds.3 mph64%30.04 "HgN/A
11:00 AM66 °FSunny.1 mph64%30.04 "Hg10 mi
10:30 AM63 °FSunny.1 mph73%30.04 "Hg10 mi
10:00 AM63 °FSunny.1 mph73%30.04 "Hg10 mi
9:30 AM59 °FSunny.1 mph77%30.04 "Hg10 mi
9:00 AM59 °FSunny.1 mph77%30.04 "Hg10 mi
Weather by CustomWeather, © 2014

See weather overview